Regional Weather Roundup
Issued by NWS Jackson, KY

Home | Current Version | Previous Version | Text Only | Print | Product List | Glossary Off
Versions: 1 2 3 4 5 6 7 8 9 10 11 12 13 14 15 16 17 18 19 20 21 22 23 24 25 26 27 28 29 30 31 32 33 34 35 36 37 38 39 40 41 42 43 44 45 46 47 48 49 50

000
ASUS43 KJKL 220119
RWRJKL

EAST KENTUCKY HOURLY WEATHER ROUNDUP
NATIONAL WEATHER SERVICE JACKSON KY
800 PM EST SUN DEC 21 2014

NOTE: "FAIR" INDICATES FEW OR NO CLOUDS BELOW 12,000 FEET WITH
NO SIGNIFICANT WEATHER AND/OR OBSTRUCTIONS TO VISIBILITY.

* THESE REPORTS ARE NOT UNDER NWS QUALITY CONTROL AND MAY NOT
  REPORT WEATHER SUCH AS PRECIPITATION AND FOG.

KYZ079-080-083-085-087-088-110-112-115-119-120-220200
...EASTERN KENTUCKY...

CITY           SKY/WX    TMP DP  RH WIND       PRES   REMARKS
JACKSON        CLEAR     37  26  64 NE6       30.12S WCI  32
LONDON         CLEAR     37  26  64 NE3       30.12R
SOMERSET*      CLOUDY    36  28  75 CALM      30.13R
MONTICELLO*    CLEAR     29  25  85 CALM      30.14R
MIDDLESBORO*   CLOUDY    39  34  84 CALM      30.12S
HARLAN APT*    PTCLDY    36  32  87 CALM      30.11S
PIKEVILLE APT* CLEAR     37  27  65 N6        30.12F WCI  33
BIG SANDY*     CLEAR     34  28  77 NE6       30.13F WCI  29
MOREHEAD APT*  PTCLDY    34  27  75 E6        30.16F WCI  29
ASHLAND*         N/A    N/A N/A N/A CALM        N/A
$$

KYZ035-036-041-042-044-050-067-078-099-220200
...CENTRAL KENTUCKY...

CITY           SKY/WX    TMP DP  RH WIND       PRES   REMARKS
MT STERLING*   PTCLDY    32  28  86 E5        30.15S WCI  27
FLEMING/MASON* CLEAR     28  25  86 NE9       30.16F WCI  20
DANVILLE*      PTCLDY    34  28  80 E6        30.13S WCI  29
RICHMOND*      PTCLDY    36  27  69 E3        30.12S
LEXINGTON      PTCLDY    32  27  81 NE9       30.13S WCI  24
FRANKFORT      CLEAR     32  27  81 E7        30.13S WCI  26
$$

KYZ091>093-OHZ055-061-077-WVZ005-015-034-035-042-220200
...SOUTHERN OHIO/WEST VIRGINIA...

CITY           SKY/WX    TMP DP  RH WIND       PRES   REMARKS
COVINGTON      PTCLDY    31  23  72 E6        30.16R WCI  25
COLUMBUS       MOCLDY    29  22  75 E3        30.19F
DAYTON         MOCLDY    30  25  81 E6        30.17F WCI  24
WILMINGTON     CLEAR     28  24  85 E7        30.15F WCI  21
HUNTINGTON     PTCLDY    35  26  69 NE5       30.16F WCI  31
CHARLESTON     PTCLDY    34  27  75 CALM      30.16F
PINEVILLE*     CLEAR     32  32 100 MISG      30.18R
BECKLEY        CLEAR     37  28  70 SE7       30.12S WCI  32
BLUEFIELD      PTCLDY    39  31  72 SE12G18   30.12S WCI  32
$$

VAZ002-007-008-TNZ017-027-036-066-071-220200
...SOUTHWEST VIRGINIA/EAST TENNESSEE...

CITY           SKY/WX    TMP DP  RH WIND       PRES   REMARKS
WISE*          CLEAR     41  30  65 CALM      30.10S
JONESVILLE*    CLEAR     34  32  93 CALM      30.13S
ABINGDON*      MOCLDY    41  35  79 E8        30.11S
BRISTOL        MOCLDY    39  34  82 CALM      30.11F
KNOXVILLE      CLOUDY    44  35  70 NE3       30.10S
OAK RIDGE      CLOUDY    46  36  68 CALM      30.11F
CROSSVILLE     CLOUDY    45  36  70 CALM      30.08S
NASHVILLE      MOCLDY    49  38  65 CALM      30.07F
$$

...KEY TO REMARKS...
VSB - VISIBILITY IN MILES
WCI - WIND CHILL INDEX
HX  - HEAT INDEX

$$


USA.gov is the U.S. government's official web portal to all federal, state and local government web resources and services.